Location: Gro�wechsungen
(51.4926°N, 10.6901°E)
Time: 08:21:38
(UTC+00:00)

SPOT 3 Rocket - Pass Details

Date: 31 January 2021
Orbit: 780 x 794 km, 98.7° (Epoch: 24 February)

Event Time Altitude Azimuth Distance (km) Brightness Sun altitude
Exits shadow 19:32:35 22° 351° (N) 1,648 5.4 -32.2°
Drops below altitude 10° 19:34:25 10° 348° (NNW) 2,353 6.3 -32.4°
Sets 19:36:45 0° 347° (NNW) 3,288 7.1 -32.8°
